LC10 LFKF-LICR

Flight info

Callsign LC10
Flight time 0h 59m
Altitude 330
Route CORS1D ATNET RUVIP DORAS TADIX VACCE FOSQ1R
Aircraft B733/M-V/N

Departure

Time 2026-04-27 08:12
Airport Figari Sud-Corse Airport (LFKF)

Arrival

Time 2026-04-27 09:11
Airport Reggio Calabria Airport (LICR)
Time Latitude Longitude Altitude Speed Heading
2026-04-27 07:55 41.49994 9.09831 63 ft 0 kts 139°
2026-04-27 08:07 41.49995 9.09829 63 ft 1 kts 139°
2026-04-27 08:07 41.50007 9.09815 63 ft 3 kts 139°
2026-04-27 08:07 41.50029 9.09790 63 ft 4 kts 139°
2026-04-27 08:08 41.50034 9.09773 63 ft 0 kts 46°
2026-04-27 08:08 41.50040 9.09784 63 ft 2 kts 51°
2026-04-27 08:08 41.50065 9.09809 64 ft 6 kts 23°
2026-04-27 08:08 41.50111 9.09796 64 ft 8 kts 320°
2026-04-27 08:09 41.50158 9.09741 64 ft 9 kts 316°
2026-04-27 08:09 41.50192 9.09662 63 ft 12 kts 248°
2026-04-27 08:09 41.50115 9.09534 60 ft 25 kts 228°
2026-04-27 08:09 41.49966 9.09320 56 ft 33 kts 226°
2026-04-27 08:10 41.49799 9.09078 46 ft 36 kts 226°
2026-04-27 08:10 41.49619 9.08815 36 ft 38 kts 226°
2026-04-27 08:10 41.49509 9.08692 34 ft 18 kts 198°
2026-04-27 08:10 41.49486 9.08633 33 ft 14 kts 21°
2026-04-27 08:11 41.49564 9.08736 35 ft 24 kts 47°
2026-04-27 08:11 41.49831 9.09120 48 ft 90 kts 47°
2026-04-27 08:11 41.50398 9.09944 68 ft 148 kts 47°
2026-04-27 08:11 41.51174 9.11084 309 ft 174 kts 49°
2026-04-27 08:12 41.51973 9.12404 750 ft 191 kts 53°
2026-04-27 08:12 41.52726 9.13837 1300 ft 191 kts 55°
2026-04-27 08:12 41.53495 9.15324 1814 ft 192 kts 57°
2026-04-27 08:12 41.54246 9.16771 2306 ft 194 kts 53°
2026-04-27 08:13 41.55042 9.18281 2788 ft 204 kts 54°
2026-04-27 08:13 41.55718 9.20014 3139 ft 221 kts 80°
2026-04-27 08:13 41.55439 9.22062 3451 ft 232 kts 122°
2026-04-27 08:13 41.54299 9.23557 3791 ft 233 kts 138°
2026-04-27 08:14 41.53037 9.24951 4121 ft 236 kts 138°
2026-04-27 08:14 41.51793 9.26357 4442 ft 232 kts 132°
2026-04-27 08:14 41.50811 9.28104 4786 ft 234 kts 121°
2026-04-27 08:14 41.49919 9.29905 5091 ft 236 kts 121°
2026-04-27 08:15 41.49006 9.31777 5427 ft 243 kts 120°
2026-04-27 08:15 41.48004 9.33594 5682 ft 249 kts 138°
2026-04-27 08:15 41.46536 9.35047 5896 ft 273 kts 142°
2026-04-27 08:15 41.45008 9.36627 6379 ft 284 kts 140°
2026-04-27 08:16 41.43469 9.38280 7084 ft 285 kts 139°
2026-04-27 08:16 41.41943 9.39967 7804 ft 286 kts 137°
2026-04-27 08:16 41.40440 9.41686 8470 ft 289 kts 137°
2026-04-27 08:16 41.38896 9.43452 8965 ft 298 kts 138°
2026-04-27 08:17 41.37312 9.45259 9578 ft 301 kts 139°
2026-04-27 08:17 41.35725 9.47067 10199 ft 304 kts 139°
2026-04-27 08:17 41.34066 9.48955 10433 ft 323 kts 139°
2026-04-27 08:17 41.32287 9.50979 10520 ft 345 kts 139°
2026-04-27 08:18 41.30414 9.53105 10920 ft 356 kts 139°
2026-04-27 08:18 41.28556 9.55214 11501 ft 360 kts 139°
2026-04-27 08:18 41.26649 9.57377 12113 ft 364 kts 139°
2026-04-27 08:18 41.24719 9.59563 12703 ft 367 kts 139°
2026-04-27 08:19 41.22772 9.61767 13275 ft 371 kts 139°
2026-04-27 08:19 41.20804 9.63993 13832 ft 375 kts 139°
2026-04-27 08:19 41.18817 9.66242 14354 ft 379 kts 140°
2026-04-27 08:19 41.16812 9.68516 14886 ft 382 kts 140°
2026-04-27 08:20 41.14787 9.70806 15417 ft 385 kts 140°
2026-04-27 08:20 41.12743 9.73113 15927 ft 389 kts 140°
2026-04-27 08:20 41.10681 9.75438 16415 ft 392 kts 140°
2026-04-27 08:20 41.08594 9.77787 16843 ft 398 kts 140°
2026-04-27 08:21 41.06479 9.80165 17266 ft 403 kts 140°
2026-04-27 08:21 41.04340 9.82568 17691 ft 407 kts 140°
2026-04-27 08:21 41.02175 9.84998 18113 ft 412 kts 139°
2026-04-27 08:21 40.99987 9.87452 18530 ft 416 kts 139°
2026-04-27 08:22 40.97767 9.89940 18945 ft 421 kts 139°
2026-04-27 08:22 40.95529 9.92445 19353 ft 425 kts 139°
2026-04-27 08:22 40.93271 9.94970 19789 ft 428 kts 139°
2026-04-27 08:22 40.91036 9.97468 20232 ft 430 kts 139°
2026-04-27 08:23 40.88710 10.00061 20628 ft 434 kts 139°
2026-04-27 08:23 40.86433 10.02587 21030 ft 437 kts 139°
2026-04-27 08:23 40.84111 10.05167 21457 ft 439 kts 139°
2026-04-27 08:23 40.81774 10.07765 21853 ft 441 kts 139°
2026-04-27 08:24 40.79427 10.10374 22235 ft 444 kts 139°
2026-04-27 08:24 40.77095 10.13038 22603 ft 446 kts 133°
2026-04-27 08:24 40.75277 10.16305 22939 ft 444 kts 116°
2026-04-27 08:24 40.73820 10.19891 23281 ft 446 kts 115°
2026-04-27 08:25 40.72371 10.23508 23639 ft 449 kts 115°
2026-04-27 08:25 40.70894 10.27131 23992 ft 451 kts 115°
2026-04-27 08:25 40.69395 10.30766 24338 ft 454 kts 115°
2026-04-27 08:25 40.67882 10.34415 24678 ft 456 kts 116°
2026-04-27 08:26 40.66360 10.38078 25013 ft 458 kts 116°
2026-04-27 08:26 40.64828 10.41759 25344 ft 461 kts 116°
2026-04-27 08:26 40.63285 10.45462 25669 ft 463 kts 116°
2026-04-27 08:26 40.61736 10.49176 25987 ft 465 kts 116°
2026-04-27 08:27 40.60177 10.52907 26298 ft 468 kts 116°
2026-04-27 08:27 40.58609 10.56658 26607 ft 470 kts 116°
2026-04-27 08:27 40.57040 10.60404 26908 ft 472 kts 116°
2026-04-27 08:27 40.55436 10.64231 27206 ft 475 kts 116°
2026-04-27 08:28 40.53866 10.67977 27434 ft 478 kts 116°
2026-04-27 08:28 40.52263 10.71801 27738 ft 479 kts 116°
2026-04-27 08:28 40.50682 10.75560 28120 ft 478 kts 116°
2026-04-27 08:28 40.49078 10.79369 28527 ft 477 kts 116°
2026-04-27 08:29 40.47477 10.83162 28907 ft 476 kts 116°
2026-04-27 08:29 40.45877 10.86951 29248 ft 475 kts 116°
2026-04-27 08:29 40.44276 10.90737 29562 ft 476 kts 116°
2026-04-27 08:29 40.42697 10.94464 29859 ft 476 kts 115°
2026-04-27 08:30 40.41095 10.98244 30165 ft 475 kts 115°
2026-04-27 08:30 40.39491 11.02022 30467 ft 475 kts 115°
2026-04-27 08:30 40.37887 11.05795 30764 ft 475 kts 115°
2026-04-27 08:30 40.36284 11.09562 31057 ft 474 kts 115°
2026-04-27 08:31 40.34681 11.13324 31333 ft 474 kts 115°
2026-04-27 08:31 40.33078 11.17081 31605 ft 473 kts 114°
2026-04-27 08:31 40.31476 11.20833 31856 ft 473 kts 114°
2026-04-27 08:31 40.29873 11.24580 32102 ft 473 kts 114°
2026-04-27 08:32 40.28271 11.28322 32339 ft 472 kts 114°
2026-04-27 08:32 40.26669 11.32060 32563 ft 472 kts 114°
2026-04-27 08:32 40.25065 11.35795 32782 ft 472 kts 114°
2026-04-27 08:32 40.23461 11.39529 32990 ft 472 kts 114°
2026-04-27 08:33 40.21856 11.43260 33160 ft 472 kts 114°
2026-04-27 08:33 40.20251 11.46986 33203 ft 470 kts 114°
2026-04-27 08:33 40.17063 11.54369 33155 ft 465 kts 114°
2026-04-27 08:34 40.13906 11.61670 33149 ft 464 kts 114°
2026-04-27 08:34 40.10709 11.69054 33129 ft 466 kts 115°
2026-04-27 08:35 40.07509 11.76426 33159 ft 467 kts 115°
2026-04-27 08:35 40.04507 11.83858 33159 ft 463 kts 110°
2026-04-27 08:36 40.01808 11.91445 33155 ft 462 kts 109°
2026-04-27 08:36 39.99092 11.99042 33157 ft 463 kts 109°
2026-04-27 08:37 39.96364 12.06629 33160 ft 463 kts 109°
2026-04-27 08:37 39.93634 12.14200 33157 ft 462 kts 109°
2026-04-27 08:38 39.90902 12.21756 33153 ft 462 kts 109°
2026-04-27 08:38 39.88169 12.29257 33147 ft 463 kts 110°
2026-04-27 08:39 39.85412 12.36801 33168 ft 463 kts 109°
2026-04-27 08:39 39.82653 12.44370 33177 ft 463 kts 109°
2026-04-27 08:40 39.79886 12.51947 33178 ft 463 kts 109°
2026-04-27 08:40 39.77143 12.59439 33171 ft 463 kts 109°
2026-04-27 08:41 39.74377 12.66972 33128 ft 464 kts 110°
2026-04-27 08:41 39.71609 12.74511 33158 ft 463 kts 110°
2026-04-27 08:42 39.68830 12.82043 33161 ft 463 kts 110°
2026-04-27 08:42 39.66042 12.89579 33156 ft 464 kts 110°
2026-04-27 08:43 39.63253 12.97097 33157 ft 463 kts 110°
2026-04-27 08:43 39.60457 13.04615 33156 ft 464 kts 109°
2026-04-27 08:44 39.58777 13.08220 33154 ft 473 kts 120°
2026-04-27 08:44 39.56805 13.11558 33156 ft 476 kts 122°
2026-04-27 08:44 39.52732 13.18364 33163 ft 476 kts 120°
2026-04-27 08:45 39.48763 13.25171 33157 ft 476 kts 119°
2026-04-27 08:45 39.44767 13.32037 33159 ft 477 kts 120°
2026-04-27 08:46 39.40802 13.38832 33155 ft 477 kts 120°
2026-04-27 08:46 39.36802 13.45670 33161 ft 476 kts 120°
2026-04-27 08:47 39.32819 13.52466 33151 ft 477 kts 120°
2026-04-27 08:47 39.28822 13.59273 33164 ft 476 kts 120°
2026-04-27 08:48 39.24834 13.66050 32951 ft 478 kts 121°
2026-04-27 08:48 39.22781 13.69541 32342 ft 476 kts 121°
2026-04-27 08:48 39.20768 13.72959 31673 ft 474 kts 121°
2026-04-27 08:49 39.18752 13.76372 31134 ft 469 kts 121°
2026-04-27 08:49 39.16730 13.79788 30618 ft 463 kts 121°
2026-04-27 08:49 39.14797 13.83052 30119 ft 459 kts 121°
2026-04-27 08:49 39.12862 13.86318 29621 ft 457 kts 121°
2026-04-27 08:50 39.10923 13.89590 29197 ft 460 kts 121°
2026-04-27 08:50 39.09010 13.92818 28788 ft 463 kts 122°
2026-04-27 08:50 39.07055 13.96106 28367 ft 463 kts 122°
2026-04-27 08:50 39.05091 13.99405 27948 ft 463 kts 122°
2026-04-27 08:51 39.03135 14.02688 27532 ft 464 kts 122°
2026-04-27 08:51 39.01170 14.05982 27114 ft 464 kts 122°
2026-04-27 08:51 38.99210 14.09265 26690 ft 463 kts 122°
2026-04-27 08:51 38.97265 14.12520 26275 ft 463 kts 122°
2026-04-27 08:52 38.95308 14.15793 25841 ft 462 kts 122°
2026-04-27 08:52 38.93356 14.19052 25395 ft 461 kts 123°
2026-04-27 08:52 38.91410 14.22298 24947 ft 458 kts 123°
2026-04-27 08:52 38.89477 14.25518 24486 ft 454 kts 123°
2026-04-27 08:53 38.87550 14.28705 24013 ft 450 kts 123°
2026-04-27 08:53 38.85678 14.31803 23571 ft 446 kts 123°
2026-04-27 08:53 38.83792 14.34932 23121 ft 442 kts 123°
2026-04-27 08:53 38.82213 14.38229 22677 ft 430 kts 109°
2026-04-27 08:54 38.81042 14.41731 22230 ft 426 kts 107°
2026-04-27 08:54 38.79906 14.45226 21783 ft 425 kts 107°
2026-04-27 08:54 38.78756 14.48695 21333 ft 422 kts 108°
2026-04-27 08:54 38.77600 14.52135 20884 ft 419 kts 108°
2026-04-27 08:55 38.76442 14.55561 20431 ft 416 kts 108°
2026-04-27 08:55 38.75294 14.58950 20000 ft 413 kts 108°
2026-04-27 08:55 38.74164 14.62278 19578 ft 410 kts 108°
2026-04-27 08:55 38.73028 14.65621 19150 ft 408 kts 109°
2026-04-27 08:56 38.71900 14.68944 18698 ft 406 kts 109°
2026-04-27 08:56 38.70775 14.72252 18272 ft 402 kts 109°
2026-04-27 08:56 38.69663 14.75513 17844 ft 395 kts 109°
2026-04-27 08:56 38.68573 14.78704 17418 ft 389 kts 109°
2026-04-27 08:57 38.66438 14.84943 16565 ft 378 kts 110°
2026-04-27 08:57 38.65390 14.88003 16143 ft 376 kts 110°
2026-04-27 08:57 38.64360 14.91008 15728 ft 374 kts 110°
2026-04-27 08:58 38.63317 14.94049 15305 ft 372 kts 110°
2026-04-27 08:58 38.62283 14.97057 14882 ft 369 kts 110°
2026-04-27 08:58 38.61255 15.00045 14458 ft 366 kts 110°
2026-04-27 08:58 38.60238 15.02998 14035 ft 362 kts 110°
2026-04-27 08:59 38.59209 15.05982 13608 ft 358 kts 110°
2026-04-27 08:59 38.58217 15.08857 13211 ft 355 kts 110°
2026-04-27 08:59 38.57225 15.11728 12812 ft 352 kts 110°
2026-04-27 08:59 38.56241 15.14575 12413 ft 349 kts 111°
2026-04-27 09:00 38.55266 15.17394 12016 ft 347 kts 111°
2026-04-27 09:00 38.54294 15.20199 11616 ft 344 kts 111°
2026-04-27 09:00 38.53343 15.22943 11223 ft 342 kts 111°
2026-04-27 09:00 38.52382 15.25711 10825 ft 340 kts 111°
2026-04-27 09:01 38.51335 15.28400 10415 ft 340 kts 123°
2026-04-27 09:01 38.49645 15.30496 10013 ft 341 kts 147°
2026-04-27 09:01 38.47586 15.31952 9624 ft 341 kts 151°
2026-04-27 09:01 38.45485 15.33365 9253 ft 339 kts 151°
2026-04-27 09:02 38.43414 15.34765 8903 ft 336 kts 151°
2026-04-27 09:02 38.41343 15.36170 8553 ft 335 kts 150°
2026-04-27 09:02 38.39315 15.37548 8207 ft 333 kts 150°
2026-04-27 09:02 38.37266 15.38941 7856 ft 331 kts 150°
2026-04-27 09:03 38.35255 15.40307 7508 ft 328 kts 150°
2026-04-27 09:03 38.33252 15.41668 7152 ft 322 kts 150°
2026-04-27 09:03 38.31287 15.43002 6798 ft 316 kts 150°
2026-04-27 09:03 38.29400 15.44283 6452 ft 311 kts 150°
2026-04-27 09:04 38.27478 15.45573 6094 ft 306 kts 151°
2026-04-27 09:04 38.25613 15.46815 5742 ft 301 kts 151°
2026-04-27 09:04 38.23779 15.48038 5391 ft 296 kts 151°
2026-04-27 09:04 38.21995 15.49228 5044 ft 292 kts 151°
2026-04-27 09:05 38.20212 15.50417 4693 ft 288 kts 151°
2026-04-27 09:05 38.18451 15.51591 4342 ft 285 kts 151°
2026-04-27 09:05 38.16690 15.52764 3987 ft 281 kts 150°
2026-04-27 09:05 38.14965 15.53895 3635 ft 279 kts 155°
2026-04-27 09:06 38.13102 15.54264 3269 ft 275 kts 189°
2026-04-27 09:06 38.11281 15.53559 2920 ft 272 kts 201°
2026-04-27 09:06 38.09538 15.52741 2647 ft 266 kts 201°
2026-04-27 09:06 38.07820 15.51933 2416 ft 259 kts 201°
2026-04-27 09:07 38.06159 15.51151 2215 ft 252 kts 201°
2026-04-27 09:07 38.04518 15.50435 2023 ft 244 kts 190°
2026-04-27 09:07 38.02928 15.50714 1974 ft 221 kts 146°
2026-04-27 09:07 38.01957 15.52077 2033 ft 205 kts 115°
2026-04-27 09:08 38.01264 15.53660 2049 ft 205 kts 115°
2026-04-27 09:08 38.00564 15.55256 2012 ft 204 kts 115°
2026-04-27 09:08 38.00099 15.56903 1974 ft 196 kts 84°
2026-04-27 09:08 38.00373 15.58592 1989 ft 193 kts 69°
2026-04-27 09:09 38.00761 15.60184 1886 ft 184 kts 69°
2026-04-27 09:09 38.01110 15.61633 1819 ft 157 kts 68°
2026-04-27 09:09 38.01410 15.62870 1660 ft 147 kts 67°
2026-04-27 09:09 38.01777 15.64081 1475 ft 143 kts 52°
2026-04-27 09:10 38.02455 15.64952 1212 ft 139 kts 29°
2026-04-27 09:10 38.03264 15.65528 956 ft 128 kts 22°
2026-04-27 09:10 38.04120 15.65901 780 ft 131 kts
2026-04-27 09:10 38.05030 15.65954 512 ft 131 kts 355°
2026-04-27 09:11 38.05935 15.65804 194 ft 128 kts 349°
2026-04-27 09:11 38.06750 15.65398 41 ft 124 kts 333°
2026-04-27 09:11 38.07323 15.65026 56 ft 57 kts 333°
2026-04-27 09:11 38.07577 15.64853 70 ft 35 kts 328°
2026-04-27 09:12 38.07763 15.64765 79 ft 17 kts 352°
2026-04-27 09:12 38.07727 15.64763 77 ft 16 kts 154°
2026-04-27 09:12 38.07560 15.64870 69 ft 36 kts 153°
2026-04-27 09:12 38.07343 15.65012 57 ft 27 kts 153°
2026-04-27 09:13 38.07300 15.65127 57 ft 15 kts 62°
2026-04-27 09:13 38.07338 15.65240 63 ft 12 kts 115°
2026-04-27 09:13 38.07310 15.65320 64 ft 8 kts 89°
2026-04-27 09:13 38.07306 15.65339 64 ft 0 kts 110°